{"data":{"norad_id":56010,"intl_designator":"2023-042AA","name":"STARLINK-5968","alt_names":[],"object_type":"PAYLOAD","status":"ACTIVE","operator":null,"country":"US","launch_date":"2023-03-24","launch_site_code":"AFETR","launch_vehicle":null,"mission":null,"orbit_class":"UNKNOWN","rcs_meters":null,"size_class":null,"mass_kg":null,"dimensions":null,"purposes":["comms"],"wikipedia_slug":null,"has_3d_model":false,"image_url":null,"decayed_at":null,"tle_current":{"epoch":"2026-09-20T19:59:48.772896Z","epoch_age_seconds":77323,"freshness":"FRESH","line1":"1 56010U 23042AA  26263.83320339  .00000617  00000+0  31932-4 0  9998","line2":"2 56010  43.0056  37.5696 0001932 275.0533  85.0098 15.27588356192718","mean_motion":15.27588356,"eccentricity":0.0001932,"inclination_deg":43.0056,"raan_deg":37.5696,"arg_perigee_deg":275.0533,"mean_anomaly_deg":85.0098,"bstar":3.1932e-5,"rev_number":19271,"period_min":94.266233068878,"perigee_km":481.69849896391,"apogee_km":484.3496516034,"semimajor_km":6861.1610752837,"source":"CELESTRAK","updated_at":"2026-09-21T09:00:33.354109Z"}}}